Shelbyville, IN

1:22 PM EST on February 21, 2017 (GMT -0500)
Shelbyville Municipal

Weather History for KGEZ - August, 2012

Change the Weather History Date:

Sunday, August 12, 2012

  Actual Average Record
Temperature  
Mean Temperature 69 °F 73 °F  
Max Temperature 83 °F 83 °F 93 °F (2007)
Min Temperature 55 °F 62 °F 46 °F (2004)
Degree Days  
Heating Degree Days 0 0  
Month to date heating degree days 0 0  
Since 1 June heating degree days 15 16  
Since 1 July heating degree days 0 1  
Cooling Degree Days 4 8  
Month to date cooling degree days 139 96  
Year to date cooling degree days 1167 669  
Since 1 June cooling degree days 927 588  
Growing Degree Days 18 (Base 50)    
Moisture  
Dew Point 55 °F    
Average Humidity 63    
Maximum Humidity 93    
Minimum Humidity 33    
Precipitation  
Precipitation T in 0.09 in 0.38 in (2016)
Month to date precipitation 2.06 1.09  
Year to date precipitation 15.82 27.98  
Sea Level Pressure  
Sea Level Pressure 30.00 in    
Wind  
Wind Speed 2 mph (SE)    
Max Wind Speed 10 mph    
Max Gust Speed 14 mph    
Visibility 10 miles    
Events      
T = Trace of Precipitation, MM = Missing Value Source: NWS Daily Summary

Daily Weather History Graph

Daily Weather History Graph

Search for Another Location

Airport or City:

Trip Planner

Search our weather history database for the weather conditions in past years. The results will help you decide how hot, cold, wet, or windy it might be!

Date:

Astronomy

Aug. 12, 2012 Rise Set
Actual Time 6:53 AM EDT 8:42 PM EDT
Civil Twilight 6:24 AM EDT 9:11 PM EDT
Nautical Twilight 5:48 AM EDT 9:46 PM EDT
Astronomical Twilight 5:11 AM EDT 10:24 PM EDT
Moon 2:06 AM EDT (8/12) 5:06 PM EDT (8/12)
Length of Visible Light 14h 47m
Length of Day
13h 49m
Waning Crescent, 24% of the Moon is Illuminated
Aug 12
Waning Crescent
Aug 17
New
Aug 24
First Quarter
Aug 31
Full
Sep 8
Last Quarter

Hourly Weather History & Observations

Time (EDT) Temp. Dew Point Humidity Pressure Visibility Wind Dir Wind Speed Gust Speed Precip Events Conditions
12:53 AM 62.1 °F 57.9 °F 86% 30.00 in 10.0 mi Calm Calm - N/A   Clear
1:53 AM 60.1 °F 55.9 °F 86% 29.99 in 10.0 mi Calm Calm - N/A   Clear
2:53 AM 59.0 °F 55.0 °F 87% 29.99 in 10.0 mi Calm Calm - N/A   Partly Cloudy
3:53 AM 57.9 °F 55.9 °F 93% 30.00 in 10.0 mi Calm Calm - N/A   Clear
4:53 AM 55.9 °F 54.0 °F 93% 29.99 in 9.0 mi Calm Calm - N/A   Clear
5:53 AM 55.9 °F 54.0 °F 93% 30.01 in 9.0 mi Calm Calm - N/A   Clear
6:53 AM 55.0 °F 54.0 °F 96% 30.01 in 4.0 mi East 3.5 mph - N/A   Clear
7:53 AM 57.9 °F 55.9 °F 93% 30.03 in 6.0 mi Calm Calm - N/A   Clear
8:53 AM 64.9 °F 61.0 °F 87% 30.04 in 10.0 mi Calm Calm - N/A   Clear
9:53 AM 69.1 °F 59.0 °F 70% 30.04 in 10.0 mi Calm Calm - N/A   Clear
10:53 AM 75.0 °F 55.9 °F 51% 30.04 in 10.0 mi Calm Calm - N/A   Clear
11:53 AM 75.9 °F 55.9 °F 50% 30.04 in 10.0 mi Variable 4.6 mph - N/A   Clear
12:53 PM 77.0 °F 53.1 °F 43% 30.03 in 10.0 mi SW 5.8 mph - N/A   Scattered Clouds
1:53 PM 79.0 °F 51.1 °F 38% 30.01 in 10.0 mi Calm Calm - N/A   Clear
2:53 PM 81.0 °F 51.1 °F 35% 30.00 in 10.0 mi SW 6.9 mph - N/A   Clear
3:53 PM 80.1 °F 52.0 °F 38% 29.99 in 10.0 mi SW 6.9 mph - N/A   Scattered Clouds
4:53 PM 81.0 °F 48.9 °F 33% 29.98 in 10.0 mi Variable 4.6 mph - N/A   Clear
5:53 PM 80.1 °F 48.9 °F 34% 29.98 in 10.0 mi Calm Calm - N/A   Clear
6:53 PM 80.1 °F 52.0 °F 38% 29.98 in 10.0 mi Calm Calm - N/A   Clear
7:53 PM 77.0 °F 57.0 °F 50% 29.98 in 10.0 mi Calm Calm - N/A   Clear
8:53 PM 73.0 °F 60.1 °F 64% 29.98 in 10.0 mi NE 4.6 mph - N/A   Partly Cloudy
9:53 PM 71.1 °F 62.1 °F 73% 29.99 in 10.0 mi East 5.8 mph - 0.00 in   Partly Cloudy
10:53 PM 70.0 °F 61.0 °F 73% 29.99 in 10.0 mi East 3.5 mph - N/A   Overcast
11:53 PM 69.1 °F 60.1 °F 73% 29.98 in 10.0 mi SE 5.8 mph - 0.00 in   Mostly Cloudy